Location: Zagreb
(45.8000°N, 16.0000°E)
Time: 20:24:15
(UTC+01:00)

CUTE-I - Pass Details

Date: 04 November 2020
Orbit: 811 x 824 km, 98.7° (Epoch: 01 December)

Event Time Altitude Azimuth Distance (km) Brightness Sun altitude
Rises 05:05:38 0° 28° (NNE) 3,359 ? -16.9°
Reaches altitude 10° 05:08:44 10° 47° (NE) 2,423 ? -16.4°
Maximum altitude 05:12:23 18° 90° (E) 1,897 ? -15.7°
Drops below altitude 10° 05:16:02 10° 134° (SE) 2,416 ? -15.1°
Sets 05:19:07 0° 152° (SSE) 3,345 ? -14.6°
